Dewpoint
5 6 6 4 5 5 5 6 6 6 6 6 5 5 5 6 5 5 5 6 6 7 6 5 5 5 5 5 3 5 4 4 4 4 4 4 4 3 3 1 1 2 2 4 2 6 4 1 -0 2 1 2 1 3
3 5 5 5 5 5 5 5 6 5 6 6 6 6 6 6 6 6 5 5 6 7 6 6 5 5 5 5 6 5 4 5 4 2 2 3 4 4 4 5 0 3 2 2 3 2 0 -0 -0 0 1 2 3 3
3 3 5 5 5 6 5 4 5 6 6 6 6 6 6 6 6 6 6 6 6 6 6 5 3 2 4 5 5 5 5 4 4 3 4 3 5 3 5 5 3 3 1 3 2 1 0 1 1 1 1 2 4 3
2 3 3 3 4 5 5 6 5 5 5 5 6 6 6 6 6 6 6 6 6 6 6 4 4 2 2 3 3 5 5 5 5 5 6 2 3 4 4 3 4 3 3 3 3 1 1 1 1 2 3 3 2 -0
-0 1 2 2 3 4 4 5 5 5 4 5 4 4 4 5 5 5 5 5 5 6 5 4 4 3 3 3 3 3 4 5 5 5 5 3 4 4 4 3 3 3 3 3 4 1 2 2 2 2 2 0 -2 -4
-3 -2 -1 0 0 1 2 3 3 3 4 3 4 5 5 5 5 5 5 5 4 5 6 3 4 4 4 3 3 3 4 5 5 5 5 5 4 3 3 4 2 1 1 2 2 2 1 2 2 2 -1 -3 -3 -3
-4 -5 -5 -3 -2 -2 -1 -1 1 3 4 4 4 5 5 5 5 5 5 4 4 4 5 4 3 3 3 3 3 3 4 5 5 5 6 5 5 5 2 5 2 2 2 1 1 1 2 1 -2 -4 -3 -4 -5 -4
-4 -4 -3 -2 -0 0 -1 -1 -1 -1 1 3 4 4 5 5 5 4 5 5 4 5 4 3 2 2 2 3 3 4 4 4 5 5 4 4 4 4 3 3 2 1 0 0 -0 -1 -3 -3 -4 -5 -5 -5 -5 -4
-4 -3 -2 -1 -0 -0 -0 0 -0 0 1 1 3 4 5 4 3 3 3 4 4 4 3 1 2 3 2 3 3 3 3 2 3 2 3 3 2 3 3 2 1 -0 -0 -2 -3 -4 -4 -4 -4 -5 -6 -6 -5 -4
-4 -3 -2 0 -1 -2 -1 1 0 1 3 3 3 4 2 2 2 2 2 2 2 2 1 -0 1 2 2 2 2 1 2 1 2 1 2 2 2 1 -0 -1 -0 -4 -5 -4 -3 -5 -6 -7 -8 -9 -7 -6 -6 -5
-5 -3 -2 -2 -2 -2 -0 0 0 1 2 2 1 1 1 1 1 1 0 -0 -0 -1 -1 -0 1 2 2 1 1 1 1 0 2 -1 -1 -1 0 -1 -3 -2 -2 -4 -3 -4 -6 -7 -11 -12 -11 -11 -9 -7 -5 -5
-5 -3 -1 -1 -2 -2 -1 -0 0 1 1 -0 -0 0 0 0 0 0 -0 -1 -0 -0 0 0 0 1 1 1 1 0 1 0 -0 -1 0 -1 -1 -5 -4 -5 -6 -6 -8 -8 -7 -8 -13 -10 -11 -8 -6 -5 -4 -4
-5 -3 -2 -1 -1 -2 -1 -1 -0 -1 -0 -0 -3 -1 -1 -1 -0 -1 -1 1 -1 0 0 0 0 -0 -0 -1 0 -1 0 0 -1 0 -1 -2 -3 -5 -6 -6 -6 -5 -6 -6 -7 -9 -7 -8 -12 -9 -6 -5 -3 -3
-1 -2 -1 -1 -1 -2 -2 -1 -1 -1 -1 -6 -3 -4 -3 -2 -3 -2 -1 -0 -1 -0 0 -0 -0 -0 -2 -2 -2 -2 -3 -1 0 -1 -3 -3 -4 -4 -4 -5 -6 -8 -9 -8 -6 -5 -7 -11 -10 -6 -4 -3 -3 -3
-2 -2 -1 -1 -0 -2 -2 -1 -1 -2 -5 -8 -4 -4 -3 -1 -1 -1 -1 -1 -1 -1 -2 -3 -3 -3 -2 -4 -2 -4 -4 -2 -3 -4 -4 -5 -5 -6 -6 -7 -7 -8 -8 -7 -7 -8 -11 -8 -7 -4 -5 -5 -4 -3
-1 -1 -1 -1 -1 -1 -1 -2 -2 -3 -9 -7 -3 -3 -3 -2 -2 -2 -2 -2 -1 -4 -4 -3 -3 -6 -6 -5 -4 -4 -4 -4 -5 -4 -5 -7 -7 -7 -8 -8 -8 -9 -9 -8 -10 -11 -8 -6 -5 -4 -3 -4 -3 -4
-3 -3 -3 -2 -2 -2 -3 -2 -3 -5 -9 -7 -3 -4 -3 -3 -2 -2 -3 -2 -1 -7 -5 -3 -7 -6 -5 -6 -5 -4 -5 -6 -5 -7 -8 -9 -9 -9 -8 -8 -9 -9 -9 -9 -10 -9 -6 -5 -4 -3 -3 -4 -4 -5
-3 -3 -3 -2 -2 -3 -3 -4 -5 -9 -5 -4 -4 -5 -5 -4 -4 -4 -3 -2 -2 -4 -5 -6 -7 -7 -8 -8 -8 -8 -9 -10 -10 -10 -11 -11 -8 -8 -8 -8 -8 -8 -7 -7 -7 -7 -7 -5 -4 -4 -4 -4 -5 -5
-4 -4 -3 -3 -4 -4 -5 -5 -5 -5 -5 -5 -5 -4 -5 -4 -5 -5 -4 -4 -3 -3 -5 -6 -8 -7 -7 -9 -10 -11 -10 -9 -7 -7 -8 -9 -7 -7 -6 -6 -7 -7 -6 -6 -6 -6 -6 -4 -4 -4 -4 -5 -5 -6
-4 -4 -3 -4 -4 -5 -5 -5 -4 -4 -4 -4 -6 -6 -6 -6 -6 -5 -4 -3 -3 -3 -4 -5 -6 -8 -8 -9 -9 -8 -8 -8 -8 -7 -6 -6 -6 -6 -7 -7 -6 -6 -5 -5 -5 -5 -4 -4 -5 -5 -5 -5 -5 -5
-4 -4 -4 -4 -4 -5 -4 -6 -6 -6 -7 -6 -6 -6 -6 -6 -4 -4 -4 -4 -4 -5 -5 -7 -9 -10 -10 -10 -10 -9 -9 -8 -7 -6 -6 -6 -8 -9 -7 -5 -5 -4 -4 -4 -4 -5 -4 -4 -4 -4 -5 -5 -5 -6
-5 -5 -4 -4 -5 -6 -6 -6 -6 -6 -6 -7 -7 -7 -6 -5 -5 -4 -4 -3 -4 -6 -7 -9 -9 -9 -8 -7 -7 -6 -6 -6 -7 -8 -9 -9 -7 -6 -5 -5 -4 -4 -5 -5 -5 -5 -4 -5 -4 -4 -5 -6 -6 -6
-6 -5 -6 -6 -6 -5 -7 -6 -5 -6 -5 -6 -6 -6 -6 -6 -7 -7 -5 -5 -6 -10 -9 -8 -8 -8 -7 -7 -7 -7 -8 -8 -8 -8 -8 -7 -7 -6 -5 -5 -4 -4 -5 -5 -4 -5 -5 -4 -4 -5 -5 -5 -6 -9
-6 -6 -7 -7 -7 -6 -6 -5 -6 -5 -7 -6 -8 -9 -8 -7 -7 -6 -8 -8 -9 -9 -8 -8 -8 -8 -8 -7 -7 -7 -7 -7 -7 -7 -8 -8 -6 -7 -8 -5 -5 -4 -5 -5 -4 -5 -5 -4 -5 -6 -6 -6 -8 -8
-5 -5 -4 -5 -5 -6 -5 -7 -6 -6 -9 -9 -9 -10 -8 -9 -9 -9 -10 -10 -10 -10 -10 -9 -9 -8 -7 -8 -10 -11 -10 -9 -7 -7 -8 -6 -6 -8 -8 -5 -5 -5 -5 -5 -4 -5 -5 -6 -6 -6 -9 -9 -8 -7
-4 -5 -5 -6 -5 -6 -7 -10 -9 -9 -10 -10 -9 -9 -9 -8 -9 -9 -7 -12 -12 -12 -11 -10 -9 -8 -8 -10 -9 -8 -8 -7 -7 -6 -6 -7 -5 -5 -6 -6 -5 -5 -5 -4 -5 -6 -6 -6 -7 -8 -7 -8 -7 -7
-4 -5 -5 -7 -6 -6 -6 -8 -9 -8 -10 -9 -10 -8 -8 -6 -9 -9 -13 -13 -12 -9 -9 -9 -9 -8 -8 -8 -7 -8 -7 -6 -6 -7 -7 -6 -6 -6 -6 -6 -6 -6 -6 -5 -5 -7 -8 -7 -6 -6 -6 -7 -7 -7
-6 -6 -6 -5 -6 -7 -7 -7 -9 -9 -9 -9 -9 -9 -9 -10 -9 -12 -12 -10 -9 -9 -9 -8 -7 -7 -7 -7 -7 -6 -6 -7 -6 -6 -6 -7 -6 -6 -6 -5 -5 -5 -5 -6 -5 -6 -6 -6 -6 -6 -6 -7 -7 -8
-5 -7 -7 -6 -6 -7 -7 -7 -7 -8 -9 -10 -8 -9 -9 -10 -10 -10 -10 -9 -9 -8 -8 -8 -8 -6 -5 -5 -5 -6 -6 -6 -6 -6 -7 -7 -7 -8 -7 -7 -7 -6 -6 -6 -6 -6 -6 -5 -5 -6 -6 -6 -7 -8
-6 -7 -6 -7 -9 -9 -8 -9 -10 -10 -10 -9 -9 -8 -7 -7 -9 -9 -8 -7 -6 -5 -5 -4 -4 -5 -5 -5 -6 -7 -7 -7 -7 -6 -6 -7 -8 -7 -7 -7 -7 -7 -7 -7 -7 -7 -7 -6 -7 -7 -7 -7 -8 -8
-10 -9 -7 -7 -8 -8 -9 -9 -9 -8 -8 -7 -7 -5 -5 -6 -7 -5 -5 -5 -5 -5 -4 -5 -6 -6 -7 -7 -7 -7 -8 -7 -7 -7 -8 -7 -8 -8 -8 -8 -8 -8 -8 -8 -8 -8 -8 -8 -8 -8 -8 -9 -9 -9
-7 -7 -7 -7 -7 -8 -8 -8 -8 -7 -6 -6 -5 -5 -4 -4 -5 -5 -5 -5 -5 -6 -6 -7 -8 -8 -8 -8 -8 -8 -9 -8 -8 -8 -8 -8 -8 -8 -8 -8 -9 -9 -9 -9 -9 -9 -9 -9 -9 -9 -10 -10 -11 -11
-7 -7 -7 -6 -5 -6 -8 -8 -7 -7 -7 -6 -6 -5 -5 -5 -5 -7 -8 -8 -8 -8 -8 -8 -9 -9 -10 -10 -10 -10 -9 -9 -9 -9 -9 -9 -9 -9 -9 -9 -9 -9 -9 -9 -10 -10 -10 -10 -10 -11 -11 -11 -11 -12
Wind_Speed
22 36 35 31 34 32 30 27 24 22 20 19 17 15 13 11 9 8 8 6 5 5 11 8 7 12 8 5 4 3 4 1 4 2 3 3 4 4 2 4 3 5 3 4 2 5 8 5 12 5 14 26 35 32
11 16 32 34 31 34 31 31 27 27 24 22 20 18 16 14 12 11 12 11 9 10 9 8 9 18 17 13 9 4 5 2 8 3 3 2 3 1 4 6 3 3 7 4 9 6 11 29 25 33 39 37 37 29
12 11 16 31 32 31 29 31 30 29 27 26 23 21 19 18 16 15 15 15 14 12 20 24 27 24 22 21 19 11 11 11 10 16 9 4 4 3 4 5 5 2 12 6 6 5 25 31 41 38 36 34 23 18
8 14 13 14 19 28 30 26 30 24 29 27 25 24 24 22 21 19 19 18 17 7 6 14 21 27 29 22 23 22 25 26 28 23 15 3 3 13 4 6 8 7 7 8 14 24 32 27 28 33 24 20 16 10
7 8 13 16 14 17 23 26 25 27 26 24 25 24 23 21 20 20 21 22 20 16 5 6 10 12 8 15 15 17 22 27 29 12 7 4 6 4 6 3 3 15 15 8 15 28 23 33 25 28 13 10 11 15
8 8 8 8 9 11 12 17 21 25 27 31 29 24 21 21 21 21 20 30 26 24 10 3 7 17 19 22 29 29 29 30 29 13 8 11 24 14 4 7 13 25 24 26 22 30 37 24 21 15 11 15 17 18
7 6 8 7 9 10 9 9 12 17 22 26 28 28 29 27 27 31 7 4 14 22 12 6 5 4 20 23 23 24 25 22 23 20 11 15 14 11 2 11 29 27 25 31 38 36 14 8 8 10 13 17 19 16
9 6 6 6 4 3 5 8 10 11 13 17 20 20 20 24 27 27 28 23 19 22 8 2 3 3 7 5 5 8 6 9 8 9 3 4 6 7 5 17 24 20 22 25 11 7 7 9 12 13 15 19 20 19
10 5 3 5 5 5 4 2 3 5 9 13 15 14 16 17 12 12 16 17 22 11 6 4 2 2 5 4 4 1 2 1 6 4 5 6 2 6 8 17 19 22 16 5 4 4 5 11 15 19 22 24 24 26
12 10 5 5 2 1 4 5 3 7 11 17 21 7 5 6 8 10 7 7 12 7 7 4 5 2 8 7 2 1 2 2 2 4 4 3 6 22 27 30 29 2 5 7 9 6 9 16 21 26 26 25 29 29
13 14 10 7 5 5 6 7 7 10 13 9 4 4 13 13 4 4 2 2 2 2 5 4 11 1 3 3 2 5 1 1 2 4 3 3 3 7 10 6 6 5 5 4 5 6 14 21 25 29 31 32 31 31
14 17 16 11 8 7 7 11 15 8 6 6 6 14 9 3 2 2 3 3 3 3 7 4 3 3 2 2 2 4 1 1 5 7 1 3 4 11 5 9 14 6 1 5 6 12 28 27 27 26 28 30 30 29
15 17 17 13 11 9 8 13 9 9 11 13 4 4 4 2 3 4 5 3 2 3 2 4 3 3 2 2 2 1 3 4 4 1 3 4 7 13 12 9 11 14 13 15 20 25 27 31 32 28 28 27 27 30
16 13 15 16 14 11 10 13 12 10 4 2 3 3 4 3 3 1 1 2 3 7 10 9 5 2 2 2 1 2 4 1 3 3 4 3 13 11 11 13 16 19 23 23 24 26 32 39 35 32 30 27 28 27
16 16 18 17 16 14 14 13 13 11 2 1 2 3 4 2 4 6 6 6 8 9 8 7 4 2 2 1 3 1 3 4 5 4 2 8 9 12 13 17 21 24 24 26 28 34 39 36 32 34 32 33 27 26
19 19 17 15 15 15 16 18 17 10 1 1 2 1 2 4 4 4 5 9 9 10 6 3 3 2 3 3 2 6 2 6 3 1 9 16 18 20 21 21 26 31 30 31 34 39 35 34 34 35 36 34 30 22
19 14 15 13 14 16 17 14 6 4 4 2 3 5 3 3 3 7 9 7 8 7 2 2 2 9 3 2 3 4 5 3 10 20 24 26 25 27 27 30 30 32 33 39 36 35 34 34 35 35 37 35 23 17
17 14 16 16 17 18 15 6 5 4 3 5 4 7 9 5 4 5 7 10 10 8 4 4 4 2 5 5 4 5 14 23 30 32 33 35 31 29 32 33 34 35 36 36 37 34 36 33 32 33 34 26 17 12
14 12 17 18 22 9 5 6 3 2 6 3 7 6 6 5 9 9 10 9 13 11 3 4 3 4 5 7 13 25 28 27 23 25 33 38 34 30 32 34 35 36 37 37 36 38 36 34 30 34 25 19 11 8
10 14 22 22 17 5 4 4 6 3 2 4 9 12 11 9 11 12 14 13 13 10 10 5 6 19 18 23 24 25 29 33 35 31 34 37 34 33 35 36 38 37 36 35 34 34 33 33 35 30 18 13 11 10
18 25 27 20 9 5 3 4 3 3 4 4 6 13 5 9 16 16 14 13 12 7 7 21 33 38 33 33 35 35 36 36 36 31 31 34 41 38 38 37 35 33 31 32 35 36 34 34 31 21 13 15 9 6
21 24 20 13 3 3 3 7 3 2 4 4 3 5 3 4 10 14 12 15 10 20 28 33 33 32 32 32 32 31 31 29 29 32 35 33 31 36 35 36 34 35 37 37 35 32 30 26 19 12 8 7 10 14
22 18 8 6 2 3 3 7 5 5 3 3 3 2 4 5 6 7 8 10 17 31 31 31 32 31 32 33 33 33 31 30 30 30 28 28 32 30 32 33 31 33 31 30 29 25 19 15 12 9 7 9 13 13
15 12 6 7 8 4 4 6 5 4 5 4 3 3 4 7 6 8 4 14 28 30 29 29 29 31 31 29 28 25 24 23 23 24 26 28 30 33 31 28 24 23 24 26 20 15 12 7 7 6 9 14 12 10
6 8 6 6 8 5 4 3 6 4 4 6 3 4 4 6 2 3 4 19 26 28 28 26 25 22 23 24 19 18 19 21 24 26 27 27 29 29 30 28 24 24 21 18 13 6 6 6 6 12 9 10 11 9
5 10 11 12 9 6 7 5 6 7 4 4 6 5 4 2 2 6 4 10 13 16 17 17 16 14 13 14 15 17 23 26 28 29 32 29 26 27 30 28 27 25 17 14 14 11 10 13 10 10 12 12 10 12
6 7 8 12 8 8 4 6 9 4 5 6 3 4 3 4 6 6 17 18 11 8 8 9 10 13 18 22 26 29 30 31 29 30 29 26 26 21 18 22 22 20 17 14 13 13 12 11 14 13 14 12 13 13
9 6 7 12 10 13 5 3 5 7 5 7 5 5 6 8 6 12 13 10 15 21 25 29 28 27 27 28 30 32 33 26 22 22 22 20 18 18 16 15 15 17 15 10 13 12 12 14 12 14 15 13 12 9
6 9 12 11 13 7 8 8 9 12 17 17 6 4 11 25 28 29 31 31 32 35 39 42 40 32 31 29 28 25 19 16 17 19 19 21 23 20 20 21 20 16 13 14 15 17 17 17 17 16 14 13 13 12
7 14 8 8 7 6 17 18 22 25 23 25 27 28 31 39 42 39 37 34 30 31 31 30 29 27 26 24 20 15 11 12 13 14 16 19 20 18 17 17 14 11 13 13 12 14 15 14 13 14 13 14 14 13
11 11 15 18 12 27 33 34 31 30 32 34 32 28 32 38 38 33 27 28 29 30 29 27 25 19 14 13 13 12 12 11 11 12 13 11 10 11 12 12 11 9 7 5 6 5 4 2 5 6 7 7 7 8
10 11 14 10 18 27 26 26 25 24 24 24 26 26 28 23 18 17 20 18 18 16 14 12 10 12 12 13 12 12 11 11 9 8 8 7 7 7 8 7 6 7 7 7 7 6 6 3 3 6 8 7 6 6
15 20 22 17 7 6 16 15 9 12 19 23 24 24 25 22 9 7 7 5 7 9 11 12 14 13 8 8 6 8 8 6 5 5 6 7 7 7 7 7 7 7 6 6 7 8 10 10 8 5 5 6 7 7
Wind_Direction
206 214 216 216 214 214 217 218 221 219 220 222 226 227 225 229 233 228 231 234 219 236 258 250 239 257 285 318 138 148 28 273 71 112 159 215 206 247 305 227 213 182 173 220 232 236 268 345 349 17 298 314 314 309
222 205 211 216 220 217 220 222 223 226 226 227 227 227 230 233 236 239 247 246 250 238 257 264 246 239 245 255 270 224 209 188 202 115 202 181 228 239 197 264 247 264 199 211 194 225 289 310 305 307 304 304 305 312
218 215 200 209 222 219 218 223 226 226 230 232 232 234 238 239 241 245 250 257 266 274 274 266 258 262 253 248 249 255 249 239 229 241 193 201 220 152 188 227 215 242 268 254 313 256 279 301 301 297 300 306 319 324
225 217 219 212 217 213 220 227 222 222 229 234 233 234 240 243 243 246 250 254 256 256 251 253 271 266 271 257 255 249 254 260 258 259 263 185 189 196 213 231 212 196 213 250 262 278 284 285 293 307 316 322 331 353
212 206 199 206 227 217 216 223 220 224 227 230 232 234 236 239 242 247 251 249 247 239 272 250 242 261 247 271 263 266 259 252 253 242 226 224 217 208 216 211 197 206 250 245 267 276 283 286 314 323 332 351 355 354
188 206 208 201 204 213 221 224 230 230 230 230 230 230 229 233 242 248 253 256 249 242 265 287 266 265 261 257 258 255 253 252 252 238 238 238 241 209 240 249 238 257 259 256 263 282 290 308 326 325 339 12 350 329
202 205 223 213 217 222 224 227 228 228 226 226 233 238 236 238 245 218 211 172 229 227 230 276 266 228 241 247 252 251 246 248 254 254 238 250 233 214 250 276 278 276 272 280 284 283 297 329 338 12 3 343 339 317
192 193 197 192 180 183 212 234 238 233 227 223 225 232 237 236 226 227 230 239 227 192 197 226 266 270 204 196 218 241 234 243 230 242 231 235 247 209 236 251 268 280 286 282 297 358 52 11 351 352 337 344 328 311
198 191 180 192 202 218 206 160 193 205 204 207 206 202 213 218 214 226 237 227 191 195 194 204 196 222 174 169 194 230 241 322 262 246 217 180 207 226 231 259 287 291 299 308 11 69 31 6 338 325 327 328 326 319
200 197 193 173 162 120 168 180 139 102 126 148 158 149 143 158 157 161 149 172 201 215 211 218 198 250 187 180 148 190 199 236 261 242 231 215 252 265 270 274 275 14 90 55 33 48 1 353 333 324 321 319 322 320
200 197 190 173 144 103 126 149 157 151 150 138 116 85 128 132 120 139 136 170 200 254 214 223 201 207 175 137 171 209 223 228 261 273 171 261 267 259 292 231 132 88 65 106 94 7 352 336 325 320 315 312 314 316
202 199 192 181 166 141 119 140 154 135 129 155 142 125 131 128 116 140 178 178 207 237 176 185 206 199 117 99 120 171 246 203 259 325 331 267 260 276 140 110 98 139 21 338 328 329 328 334 331 320 315 312 310 312
200 195 192 187 180 160 147 149 147 119 126 135 131 120 148 153 171 190 191 186 204 162 140 140 82 94 88 110 70 38 240 237 329 261 238 225 324 66 55 40 9 2 345 329 323 323 326 331 331 323 322 319 306 309
180 178 180 177 177 175 165 170 154 152 148 175 138 118 177 180 251 187 155 106 124 122 121 124 88 90 101 95 179 243 248 351 260 250 230 311 40 29 5 354 337 335 330 322 316 321 326 327 324 319 324 319 312 306
177 178 188 189 188 183 175 179 172 181 185 221 143 190 198 144 105 113 107 119 132 120 111 95 95 111 126 89 214 329 307 244 211 233 185 38 19 10 353 335 325 327 324 318 317 318 319 318 316 312 316 321 312 307
169 172 188 189 183 183 178 180 181 177 241 224 193 159 155 124 149 129 155 156 149 151 142 121 119 73 250 186 157 216 196 225 242 129 5 350 343 334 333 327 322 321 315 307 308 311 307 306 307 306 304 314 308 307
187 189 186 181 181 181 165 158 142 170 220 207 214 204 168 138 181 183 177 185 185 161 168 142 133 216 201 226 231 208 206 221 358 338 332 327 326 324 323 321 317 311 305 304 305 305 305 305 301 300 304 312 302 292
179 176 184 188 186 167 148 142 170 199 219 214 216 202 204 187 190 191 184 180 177 185 190 220 233 192 217 210 245 263 309 312 314 317 321 315 315 314 312 305 305 305 304 304 305 304 305 303 300 306 307 302 296 239
165 172 174 175 154 136 151 174 151 230 236 219 207 172 212 234 240 228 238 228 212 210 225 236 229 224 231 258 282 284 288 293 303 306 305 305 307 307 304 305 306 304 304 304 303 303 302 300 300 308 301 292 234 208
150 155 155 150 160 143 145 158 179 217 234 226 211 222 221 234 250 247 240 235 229 227 219 226 229 248 262 267 272 281 286 291 301 303 300 302 305 307 305 305 304 304 304 305 306 307 302 298 299 309 295 230 230 232
146 150 161 168 154 136 158 160 184 236 245 250 249 215 231 241 235 231 223 215 217 225 239 240 251 259 264 271 278 283 285 289 290 293 295 298 303 308 308 309 309 306 300 303 305 305 303 303 305 301 273 232 213 221
157 166 171 183 133 169 197 194 199 220 210 237 237 228 244 232 234 229 230 206 227 237 241 254 262 268 270 275 282 285 287 291 292 292 294 299 300 307 310 313 311 307 307 307 306 307 306 304 305 278 239 204 221 253
156 167 160 165 160 189 246 195 199 208 194 206 198 227 234 218 225 206 217 227 240 253 260 266 273 276 274 281 285 286 289 291 292 294 297 299 305 306 308 312 312 305 310 313 313 308 307 301 285 208 204 245 259 259
160 164 175 192 198 200 180 194 212 216 215 199 193 230 229 209 215 216 229 246 261 270 272 271 272 276 279 279 282 290 294 296 296 295 300 307 306 309 313 312 317 319 320 314 308 299 290 235 192 183 261 274 258 250
155 192 193 199 196 198 191 193 196 205 226 207 204 266 257 196 189 252 240 272 276 278 281 283 282 278 276 283 292 305 309 302 297 296 298 305 309 311 314 315 312 308 319 317 300 274 246 227 262 290 283 269 255 258
204 199 193 197 180 191 194 184 197 207 180 193 232 229 207 164 195 245 241 268 283 291 295 294 294 297 291 290 302 310 312 307 301 294 296 302 306 307 307 310 311 309 320 317 290 281 275 291 277 267 276 276 253 242
205 208 204 206 197 185 224 222 213 195 188 202 222 185 167 216 235 247 269 277 273 283 297 303 300 298 301 297 294 299 307 300 292 292 298 303 308 311 309 311 305 297 305 302 283 274 268 265 270 265 275 262 248 247
222 218 176 191 212 216 185 213 190 201 214 225 209 194 199 203 226 252 266 276 297 302 300 299 299 297 292 289 290 295 295 297 298 304 308 312 319 322 313 309 316 307 301 293 274 260 259 271 274 267 258 244 240 235
226 205 199 205 205 212 221 208 219 233 243 240 218 229 249 260 272 278 280 283 288 294 294 294 294 293 289 289 289 294 295 302 304 306 312 310 314 322 313 301 294 296 297 294 277 269 274 278 286 265 243 231 227 226
230 208 220 219 181 221 232 238 255 263 264 264 268 269 273 274 277 281 283 288 289 288 289 288 288 288 289 294 300 302 303 299 294 287 289 301 318 330 338 336 338 307 298 306 303 294 286 284 256 239 228 222 230 241
240 228 229 237 243 251 257 264 266 269 271 273 272 262 261 273 284 287 281 278 279 279 280 282 288 294 291 289 288 290 293 286 282 293 301 311 316 320 337 354 1 2 2 348 342 1 358 261 232 236 238 245 255 270
238 237 242 251 257 260 268 275 279 272 270 266 260 259 263 266 266 271 267 264 264 275 280 283 276 269 272 274 280 281 285 291 296 300 313 320 324 327 333 344 354 354 351 346 344 345 349 330 268 274 289 295 297 296
271 269 271 279 271 252 270 269 265 263 252 247 251 250 248 247 259 238 265 266 264 265 266 268 272 277 269 283 265 269 276 273 283 303 316 319 317 315 313 312 313 314 316 309 313 324 328 324 320 305 286 284 282 286
Height
1471 1478 1483 1489 1494 1500 1506 1510 1516 1519 1522 1526 1530 1533 1536 1538 1540 1543 1545 1546 1547 1548 1548 1549 1549 1550 1551 1552 1556 1554 1557 1555 1560 1567 1568 1568 1566 1564 1557 1547 1551 1557 1563 1557 1559 1545 1543 1512 1511 1526 1517 1506 1505 1497
1469 1471 1477 1483 1490 1495 1500 1506 1510 1515 1519 1523 1526 1529 1532 1535 1537 1540 1543 1544 1545 1546 1546 1545 1545 1546 1548 1549 1551 1550 1552 1552 1552 1559 1562 1560 1560 1557 1555 1547 1540 1548 1544 1545 1542 1528 1508 1510 1515 1510 1509 1503 1496 1494
1467 1469 1472 1480 1485 1489 1494 1500 1504 1509 1514 1518 1522 1525 1529 1531 1534 1536 1539 1541 1542 1543 1542 1540 1538 1542 1543 1544 1545 1547 1546 1547 1546 1546 1546 1547 1547 1546 1545 1541 1540 1535 1533 1532 1527 1511 1505 1508 1506 1504 1499 1496 1492 1488
1466 1468 1472 1474 1479 1483 1490 1494 1498 1502 1509 1513 1517 1520 1525 1527 1530 1532 1534 1538 1539 1538 1536 1533 1534 1534 1535 1537 1537 1538 1539 1541 1540 1541 1539 1539 1541 1537 1532 1530 1529 1529 1528 1521 1513 1510 1505 1502 1501 1497 1493 1492 1486 1484
1465 1469 1472 1474 1477 1479 1484 1489 1493 1498 1502 1507 1512 1516 1520 1523 1526 1527 1529 1531 1534 1539 1531 1528 1526 1530 1529 1531 1531 1531 1531 1531 1531 1533 1533 1533 1530 1531 1522 1521 1518 1516 1514 1517 1506 1501 1502 1494 1494 1492 1489 1486 1486 1481
1466 1468 1471 1472 1475 1477 1479 1482 1487 1491 1496 1500 1506 1511 1514 1519 1521 1522 1521 1522 1527 1530 1529 1522 1518 1517 1521 1523 1523 1522 1523 1524 1526 1524 1520 1517 1518 1522 1516 1503 1501 1503 1503 1502 1499 1496 1494 1491 1491 1489 1486 1484 1481 1480
1465 1467 1469 1471 1473 1474 1476 1479 1483 1485 1489 1493 1499 1503 1507 1511 1513 1512 1513 1514 1519 1523 1525 1519 1512 1510 1511 1513 1515 1515 1516 1517 1518 1517 1510 1511 1512 1513 1505 1495 1490 1496 1495 1494 1491 1489 1488 1488 1487 1484 1485 1483 1479 1475
1463 1466 1468 1470 1473 1474 1474 1477 1479 1482 1484 1487 1493 1497 1500 1504 1504 1505 1506 1511 1514 1518 1516 1513 1510 1511 1509 1509 1511 1510 1511 1511 1509 1507 1506 1505 1503 1500 1497 1486 1486 1487 1486 1486 1485 1485 1486 1485 1484 1481 1481 1476 1477 1472
1461 1465 1467 1470 1473 1474 1474 1476 1478 1478 1481 1484 1488 1493 1496 1498 1499 1499 1504 1508 1511 1514 1511 1510 1508 1507 1507 1507 1508 1510 1509 1510 1507 1502 1501 1502 1497 1491 1483 1480 1482 1482 1481 1481 1481 1482 1481 1480 1482 1482 1477 1473 1471 1466
1461 1464 1468 1471 1472 1472 1473 1476 1478 1479 1481 1482 1486 1491 1493 1495 1498 1502 1505 1506 1509 1505 1506 1505 1505 1506 1508 1507 1507 1511 1508 1508 1503 1497 1497 1493 1483 1477 1476 1475 1477 1477 1478 1477 1479 1481 1483 1478 1478 1476 1472 1467 1464 1460
1459 1463 1468 1472 1473 1473 1475 1478 1479 1482 1483 1483 1486 1491 1495 1498 1500 1500 1503 1506 1507 1506 1504 1502 1502 1503 1502 1505 1507 1507 1505 1506 1502 1498 1497 1491 1483 1474 1472 1470 1473 1476 1477 1480 1478 1479 1477 1477 1475 1470 1466 1463 1459 1455
1459 1464 1468 1470 1473 1476 1477 1478 1482 1483 1484 1486 1488 1492 1497 1499 1500 1502 1502 1504 1502 1502 1500 1500 1501 1502 1503 1504 1505 1507 1507 1507 1501 1494 1494 1489 1477 1471 1473 1473 1473 1475 1476 1476 1475 1475 1473 1471 1469 1466 1462 1457 1453 1450
1458 1462 1465 1469 1474 1475 1478 1482 1483 1483 1486 1488 1491 1493 1495 1499 1500 1501 1499 1497 1497 1495 1496 1498 1501 1503 1504 1506 1507 1508 1506 1502 1497 1495 1489 1484 1473 1474 1474 1474 1474 1474 1474 1474 1472 1471 1468 1465 1462 1459 1454 1450 1446 1443
1456 1459 1464 1468 1472 1476 1478 1481 1484 1486 1487 1489 1489 1495 1494 1497 1495 1492 1493 1494 1496 1495 1496 1498 1500 1503 1505 1507 1509 1509 1503 1499 1495 1491 1491 1483 1479 1477 1475 1475 1476 1474 1473 1471 1468 1464 1460 1458 1453 1450 1448 1444 1440 1436
1455 1459 1464 1467 1470 1473 1478 1482 1484 1486 1488 1489 1489 1493 1494 1491 1491 1492 1494 1497 1496 1496 1498 1499 1501 1503 1503 1506 1506 1506 1505 1494 1495 1492 1484 1481 1480 1480 1478 1475 1473 1472 1469 1467 1462 1458 1455 1451 1447 1443 1440 1436 1432 1429
1455 1459 1463 1466 1469 1474 1478 1481 1484 1487 1489 1488 1489 1490 1490 1491 1493 1492 1495 1497 1498 1498 1500 1500 1501 1505 1506 1503 1505 1502 1500 1495 1486 1479 1480 1478 1477 1476 1474 1471 1468 1465 1463 1461 1457 1453 1448 1444 1440 1436 1431 1427 1424 1421
1455 1458 1462 1466 1470 1474 1477 1481 1484 1487 1487 1487 1489 1490 1488 1489 1490 1491 1493 1496 1498 1499 1500 1500 1505 1501 1495 1501 1498 1486 1485 1477 1474 1474 1474 1474 1474 1471 1468 1464 1461 1459 1457 1453 1449 1444 1440 1437 1432 1428 1423 1420 1417 1415
1456 1459 1463 1467 1471 1475 1479 1482 1485 1486 1487 1487 1488 1487 1487 1488 1489 1490 1490 1492 1496 1498 1498 1498 1494 1495 1496 1492 1484 1473 1470 1470 1471 1469 1468 1468 1468 1464 1462 1459 1456 1452 1448 1444 1440 1436 1432 1428 1424 1421 1416 1413 1411 1410
1456 1459 1463 1468 1472 1476 1480 1482 1484 1484 1484 1484 1484 1484 1484 1485 1486 1487 1488 1489 1492 1495 1496 1493 1491 1487 1479 1472 1470 1470 1469 1469 1468 1467 1465 1463 1461 1460 1456 1452 1448 1444 1439 1435 1431 1427 1424 1421 1417 1414 1409 1407 1406 1408
1457 1460 1465 1469 1473 1476 1479 1481 1483 1483 1482 1481 1481 1481 1482 1482 1481 1482 1483 1486 1489 1491 1492 1485 1477 1471 1470 1467 1467 1466 1465 1464 1464 1461 1457 1455 1453 1452 1448 1444 1439 1434 1430 1426 1423 1420 1416 1412 1409 1406 1404 1403 1404 1406
1459 1462 1467 1470 1473 1475 1478 1478 1480 1480 1479 1478 1477 1478 1477 1477 1477 1478 1480 1484 1486 1484 1480 1472 1464 1462 1464 1463 1462 1462 1460 1460 1457 1456 1453 1449 1446 1443 1439 1434 1431 1427 1423 1419 1415 1411 1407 1404 1401 1399 1399 1400 1402 1404
1459 1464 1467 1471 1472 1474 1476 1477 1477 1477 1478 1476 1476 1475 1475 1475 1474 1474 1476 1476 1473 1469 1465 1459 1458 1458 1457 1456 1455 1455 1454 1453 1451 1449 1446 1444 1439 1435 1431 1427 1424 1418 1415 1411 1407 1403 1400 1397 1395 1395 1396 1398 1401 1401
1460 1465 1468 1471 1473 1474 1475 1474 1475 1475 1475 1474 1474 1473 1471 1470 1468 1469 1468 1462 1458 1455 1455 1454 1452 1452 1450 1449 1449 1447 1447 1446 1442 1440 1438 1436 1433 1428 1425 1420 1417 1412 1407 1402 1400 1397 1395 1393 1392 1393 1395 1397 1398 1398
1462 1466 1467 1468 1469 1470 1470 1471 1471 1471 1470 1469 1470 1469 1465 1463 1463 1461 1458 1451 1449 1449 1448 1447 1447 1444 1443 1442 1441 1440 1439 1438 1436 1434 1432 1429 1425 1420 1417 1413 1410 1407 1403 1398 1394 1393 1392 1391 1392 1393 1394 1394 1394 1394
1463 1465 1465 1464 1464 1466 1466 1466 1466 1466 1467 1464 1465 1463 1457 1457 1458 1456 1450 1442 1442 1440 1439 1439 1439 1438 1436 1435 1435 1434 1434 1432 1430 1427 1424 1422 1418 1413 1409 1406 1404 1401 1398 1395 1392 1391 1390 1390 1391 1391 1391 1391 1391 1392
1456 1455 1455 1454 1456 1458 1458 1461 1460 1459 1458 1460 1457 1453 1451 1452 1456 1452 1439 1434 1434 1434 1433 1433 1433 1432 1432 1431 1430 1429 1428 1426 1424 1420 1417 1415 1412 1409 1403 1399 1396 1394 1394 1391 1390 1388 1388 1388 1388 1388 1388 1387 1388 1388
1447 1446 1446 1447 1447 1448 1448 1448 1448 1448 1452 1452 1448 1448 1449 1451 1450 1435 1431 1430 1430 1430 1430 1430 1429 1429 1428 1427 1427 1424 1421 1418 1415 1412 1409 1406 1404 1401 1399 1395 1391 1390 1388 1387 1386 1385 1384 1384 1384 1384 1384 1384 1384 1384
1439 1438 1440 1440 1441 1442 1443 1443 1443 1444 1442 1440 1440 1442 1442 1439 1432 1428 1428 1427 1426 1425 1425 1425 1424 1423 1421 1419 1417 1415 1411 1408 1406 1404 1402 1400 1399 1396 1393 1390 1387 1385 1384 1382 1382 1381 1381 1380 1379 1379 1379 1379 1380 1381
1433 1433 1434 1434 1436 1436 1435 1435 1433 1432 1432 1432 1430 1430 1425 1425 1424 1423 1421 1421 1420 1418 1416 1414 1412 1412 1411 1410 1408 1405 1404 1402 1400 1398 1395 1393 1391 1390 1388 1384 1382 1380 1378 1377 1377 1376 1376 1375 1374 1373 1374 1375 1376 1377
1427 1429 1429 1427 1429 1428 1424 1426 1423 1423 1424 1424 1423 1421 1419 1415 1413 1414 1414 1412 1410 1408 1406 1405 1404 1403 1401 1400 1399 1398 1398 1397 1396 1394 1391 1389 1388 1385 1382 1379 1376 1374 1374 1373 1372 1371 1370 1369 1369 1369 1370 1371 1372 1373
1421 1421 1420 1420 1418 1416 1416 1415 1416 1416 1415 1413 1413 1412 1408 1405 1404 1405 1404 1402 1401 1399 1397 1397 1397 1396 1395 1395 1394 1393 1393 1392 1391 1390 1389 1387 1385 1383 1381 1379 1376 1374 1372 1371 1371 1369 1368 1368 1368 1369 1369 1370 1370 1370
1415 1415 1414 1412 1410 1410 1410 1409 1407 1405 1404 1404 1401 1401 1400 1400 1398 1397 1394 1393 1393 1392 1392 1392 1392 1392 1391 1391 1390 1389 1388 1388 1387 1387 1386 1384 1383 1381 1380 1378 1377 1376 1374 1373 1372 1371 1370 1369 1369 1369 1368 1367 1367 1367
1411 1410 1408 1407 1404 1403 1402 1403 1398 1395 1393 1392 1390 1390 1390 1391 1391 1391 1389 1389 1389 1388 1388 1388 1388 1388 1388 1387 1387 1386 1385 1385 1385 1384 1383 1382 1381 1380 1379 1378 1377 1375 1374 1373 1371 1370 1369 1368 1368 1367 1367 1366 1366 1365